Airfield :
LOGIN :

Register | Disclaimer

   EN    FR    IT 

 










Legend :    VFR   Marginal VFR   IFR   Intensive IFR   Very Intensive IFR
Visi :
Ceiling :
>= 8 km
>= 3000ft
5 to 8 km
1000 to 3000 ft
1500m to 5 km
500 to 1000 ft
800 to 1500m
200 to 500 ft
< 800m
< 200 ft
Symbols :   Thunderstorms  Fog  Heavy snow  Heavy precipitations  Wind > 20 kt
SIGMETs :     Misc.  Thunderstorms  Icing  Turbulence  Mountain Waves  Volcanic Ashes







- Airport Elevation : 20 ft
- IATA code : BJA


DAAE - Soummam - Bejaia

CURRENT METAR :
  • 180700Z 24014KT CAVOK 18/12 Q1018

EXPIRED METARs :
  • 180600Z 25017KT CAVOK 17/11 Q1018
  • 180500Z 24014KT CAVOK 17/11 Q1018

TAF TAF DAAE
Valid from the 18 at 06:00 until the 19 at 06:00 UTC


180500Z 1806/1906 24012KT 9999 FEW026
PROB30
TEMPO 1821/1906 22015G25KT
No reported NOTAMs for that airfield.



MET'MAP, your aeronautical weather chart ! - Copyright ORBIFLY December 2007 - Disclaimer

ORBIFLY MET'MAP TEAM :

Programming & Development : Alexandra Zaïnal
Concept & Development : Baudouin d'Aumeries
Co-Development & Prog : Marc-Olivier Méhu
Technical & hardware support : Manuel Goepfert

Contact : metmap@orbifly.com




SOURCES & CREDITS :

   NOAA